Regional Weather Roundup
Issued by NWS

Home | Current Version | Previous Version | Text Only | Print | Product List | Glossary Off
Versions: 1 2 3 4 5 6 7 8 9 10 11 12 13 14 15 16 17 18 19 20 21 22 23 24 25 26 27 28 29 30 31 32 33 34 35 36 37 38 39 40 41 42 43 44 45 46 47 48 49 50

004
ASUS43 KIND 071709
RWRIN

WEATHER ROUNDUP FOR INDIANA
NATIONAL WEATHER SERVICE INDIANAPOLIS IN
1200 PM EST SUN FEB 07 2016

NOTE: "FAIR" INDICATES FEW OR NO CLOUDS BELOW 12,000 FEET WITH NO
SIGNIFICANT WEATHER AND/OR OBSTRUCTIONS TO VISIBILITY.

* - STATION DOES NOT REPORT WEATHER SUCH AS PRECIPITATION OR FOG.

+ - STATION NOT QUALITY CONTROLLED BY THE NATIONAL WEATHER SERVICE.
    USE DATA WITH CAUTION...ESPECIALLY DEWPOINT AND RELATIVE
    HUMIDITY OBSERVATIONS.

INZ001>003-010>013-019-020-071800-
NORTHWEST INDIANA

CITY           SKY/WX    TMP DP  RH WIND       PRES   REMARKS
GARY /AIRPORT/ PTSUNNY   45  27  49 SW17G32   29.82F
LA PORTE +     MOSUNNY   44  32  62 SW15G24   29.83F
MICHIGAN CITY+ CLOUDY    45  32  61 SW14      29.82F
MONTICELLO +   CLOUDY    44  26  48 S15G21    29.89S
RENSSELAER +   MOSUNNY   43  28  56 SW20      29.87F
VALPARAISO     MOSUNNY   45  29  53 SW23G32   29.84F

$$

LMZ046-743>745-071800-
SOUTHERN LAKE MICHIGAN

STATION/POSITION TIME  TEMP    WIND        PRES    WAVE
                       AIR SEA DIR/SP/G            HT
                 (UTC) (F)     (DEG/KT/KT) (MB)    (FT)
BURNS HARBOR     1640   43     220/ 23     1010.5F
MICHIGAN CITY    1600   42     190/ 21/ 24   N/A

$$

INZ004-005-014>016-021>024-071800-
NORTH CENTRAL INDIANA

CITY           SKY/WX    TMP DP  RH WIND       PRES   REMARKS
GOSHEN         CLOUDY    43  29  57 S20       29.85F
LOGANSPORT +   CLOUDY    43  27  52 SW17G24   29.91F
PERU/GRISSOM   CLOUDY    45  30  55 SW21G28   29.88F
ROCHESTER +    CLOUDY    45  27  49 SW16G23   29.89F
SOUTH BEND     CLOUDY    43  28  55 SW24G30   29.84F
WARSAW +       CLOUDY    43  30  61 SW12G20   29.87F

$$

INZ006>009-017-018-025>027-071800-
NORTHEAST INDIANA

CITY           SKY/WX    TMP DP  RH WIND       PRES   REMARKS
AUBURN +       CLOUDY    46  30  53 SW12G20   29.90F
FORT WAYNE     PTSUNNY   45  31  58 SW21G28   29.93F
HUNTINGTON +   SUNNY     45  26  47 SW17G23   29.92F

$$

INZ028-029-035-036-043>045-051>053-071800-
WEST CENTRAL INDIANA

CITY           SKY/WX    TMP DP  RH WIND       PRES   REMARKS
GREENCASTLE +  SUNNY     46  23  39 SW9G20    29.97F
LAFAYETTE      CLOUDY    45  27  49 SW17G25   29.91F
TERRE HAUTE    SUNNY     49  29  46 SW21G28   29.97F

$$

INZ030>032-037>040-046>048-054>057-064-065-071800-
CENTRAL INDIANA

CITY           SKY/WX    TMP DP  RH WIND       PRES   REMARKS
COLUMBUS       SUNNY     48  27  43 SW14G21   30.01F
FISHERS *+     SUNNY     48  32  53 SW15G25   29.96F
FRANKFORT +    MOSUNNY   46  22  39 S15G24    29.93F
GREENWOOD *+   SUNNY     50  32  50 SW15G21   30.00F
INDIANAPOLIS   MOSUNNY   50  28  42 SW21G29   29.96F
-EAGLE CREEK   SUNNY     47  28  47 SW13G25   29.96F
KOKOMO *+        N/A     45  28  53 SW16G24   29.92F
MARION +       SUNNY     44  21  40 SW18      29.94F
MT COMFORT *+  SUNNY     46  28  49 SW16G23   29.98F
SHELBYVILLE    CLOUDY    46  28  49 S15       29.99F
ZIONSVILLE +   MOSUNNY   46  30  54 SW18G26   29.95F

$$

INZ033-034-041-042-049-050-058-059-071800-
EAST CENTRAL INDIANA

CITY           SKY/WX    TMP DP  RH WIND       PRES   REMARKS
MUNCIE         MOSUNNY   46  26  45 SW15G23   29.96F

$$

INZ060-061-067>069-081>083-085>088-071800-
SOUTHWEST INDIANA

CITY           SKY/WX    TMP DP  RH WIND       PRES   REMARKS
EVANSVILLE     SUNNY     51  29  42 S14       30.07F
HUNTINGBURG *+ SUNNY     48  30  49 SW17      30.07F
WASHINGTON +   SUNNY     48  29  48 SW14G21   30.03F

$$

INZ062-063-066-070>080-084-089>092-071800-
SOUTH CENTRAL AND SOUTHEAST INDIANA

CITY           SKY/WX    TMP DP  RH WIND       PRES   REMARKS
BEDFORD +      SUNNY     50  28  43 SW10G16   30.03F
BLOOMINGTON    SUNNY     50  30  46 SW17G26   30.01F
MADISON *+     CLOUDY    46  25  42 SW9       30.08F
NORTH VERNON + CLOUDY    46  25  42 S10       30.05F
SEYMOUR +      SUNNY     50  28  43 SW14      30.04F

$$





USA.gov is the U.S. government's official web portal to all federal, state and local government web resources and services.